Year,Month,Day,Hour,Minute,Value (Times are PST for temperature in C)
2019,06,08,00,01,12.20
2019,06,08,00,02,12.10
2019,06,08,00,03,12.10
2019,06,08,00,04,12.10
2019,06,08,00,06,12.10
2019,06,08,00,07,12.10
2019,06,08,00,09,12.10
2019,06,08,00,11,12.00
2019,06,08,00,12,12.00
2019,06,08,00,13,12.00
2019,06,08,00,14,12.00
2019,06,08,00,16,12.00
2019,06,08,00,17,11.90
2019,06,08,00,18,11.90
2019,06,08,00,19,11.90
2019,06,08,00,21,11.90
2019,06,08,00,22,11.80
2019,06,08,00,23,11.80
2019,06,08,00,24,11.80
2019,06,08,00,26,11.80
2019,06,08,00,27,11.80
2019,06,08,00,28,11.80
2019,06,08,00,29,11.70
2019,06,08,00,30,11.70
2019,06,08,00,32,11.60
2019,06,08,00,33,11.60
2019,06,08,00,34,11.60
2019,06,08,00,36,11.60
2019,06,08,00,37,11.60
2019,06,08,00,38,11.60
2019,06,08,00,39,11.60
2019,06,08,00,41,11.40
2019,06,08,00,42,11.40
2019,06,08,00,43,11.40
2019,06,08,00,44,11.40
2019,06,08,00,46,11.40
2019,06,08,00,47,11.40
2019,06,08,00,48,11.40
2019,06,08,00,49,11.40
2019,06,08,00,52,11.40
2019,06,08,00,53,11.40
2019,06,08,00,54,11.40
2019,06,08,00,57,11.40
2019,06,08,00,58,11.40
2019,06,08,00,59,11.40
2019,06,08,01,01,11.40
2019,06,08,01,02,11.40
2019,06,08,01,03,11.40
2019,06,08,01,04,11.40
2019,06,08,01,06,11.40
2019,06,08,01,07,11.40
2019,06,08,01,08,11.40
2019,06,08,01,09,11.40
2019,06,08,01,11,11.40
2019,06,08,01,12,11.40
2019,06,08,01,13,11.40
2019,06,08,01,14,11.40
2019,06,08,01,15,11.40
2019,06,08,01,16,11.40
2019,06,08,01,17,11.40
2019,06,08,01,18,11.30
2019,06,08,01,19,11.30
2019,06,08,01,20,11.30
2019,06,08,01,21,11.30
2019,06,08,01,22,11.30
2019,06,08,01,23,11.30
2019,06,08,01,24,11.30
2019,06,08,01,25,11.30
2019,06,08,01,26,11.30
2019,06,08,01,27,11.30
2019,06,08,01,28,11.30
2019,06,08,01,29,11.30
2019,06,08,01,30,11.30
2019,06,08,01,31,11.30
2019,06,08,01,32,11.30
2019,06,08,01,33,11.30
2019,06,08,01,34,11.30
2019,06,08,01,36,11.30
2019,06,08,01,37,11.30
2019,06,08,01,38,11.30
2019,06,08,01,39,11.30
2019,06,08,01,40,11.30
2019,06,08,01,41,11.30
2019,06,08,01,42,11.30
2019,06,08,01,43,11.30
2019,06,08,01,44,11.20
2019,06,08,01,45,11.20
2019,06,08,01,46,11.20
2019,06,08,01,47,11.20
2019,06,08,01,48,11.20
2019,06,08,01,49,11.20
2019,06,08,01,50,11.20
2019,06,08,01,51,11.20
2019,06,08,01,52,11.20
2019,06,08,01,53,11.20
2019,06,08,01,54,11.20
2019,06,08,01,55,11.20
2019,06,08,01,56,11.20
2019,06,08,01,57,11.20
2019,06,08,01,58,11.20
2019,06,08,01,59,11.10
2019,06,08,02,00,11.10
2019,06,08,02,01,11.10
2019,06,08,02,02,11.10
2019,06,08,02,03,11.10
2019,06,08,02,04,11.10
2019,06,08,02,05,11.10
2019,06,08,02,06,11.10
2019,06,08,02,07,11.10
2019,06,08,02,08,11.10
2019,06,08,02,09,11.10
2019,06,08,02,10,11.10
2019,06,08,02,11,11.10
2019,06,08,02,12,11.10
2019,06,08,02,13,11.10
2019,06,08,02,14,11.10
2019,06,08,02,15,11.10
2019,06,08,02,16,11.10
2019,06,08,02,17,11.10
2019,06,08,02,18,11.10
2019,06,08,02,19,11.10
2019,06,08,02,20,11.10
2019,06,08,02,21,11.10
2019,06,08,02,22,11.10
2019,06,08,02,23,11.10
2019,06,08,02,24,11.10
2019,06,08,02,25,11.10
2019,06,08,02,26,11.10
2019,06,08,02,27,11.10
2019,06,08,02,28,11.10
2019,06,08,02,29,11.10
2019,06,08,02,30,11.10
2019,06,08,02,31,11.10
2019,06,08,02,32,11.10
2019,06,08,02,33,11.10
2019,06,08,02,34,11.10
2019,06,08,02,35,11.10
2019,06,08,02,36,11.10
2019,06,08,02,37,11.10
2019,06,08,02,38,11.10
2019,06,08,02,39,11.10
2019,06,08,02,40,11.10
2019,06,08,02,41,11.10
2019,06,08,02,42,11.10
2019,06,08,02,43,11.10
2019,06,08,02,44,11.10
2019,06,08,02,45,11.10
2019,06,08,02,46,11.10
2019,06,08,02,47,11.10
2019,06,08,02,48,11.10
2019,06,08,02,49,11.10
2019,06,08,02,50,11.10
2019,06,08,02,51,11.10
2019,06,08,02,52,11.10
2019,06,08,02,53,11.10
2019,06,08,02,54,11.10
2019,06,08,02,55,11.10
2019,06,08,02,56,11.10
2019,06,08,02,57,11.10
2019,06,08,02,58,11.10
2019,06,08,02,59,11.10
2019,06,08,03,00,11.10
2019,06,08,03,01,11.10
2019,06,08,03,02,11.10
2019,06,08,03,03,11.10
2019,06,08,03,04,11.10
2019,06,08,03,05,11.10
2019,06,08,03,06,10.90
2019,06,08,03,07,10.90
2019,06,08,03,08,10.90
2019,06,08,03,09,10.90
2019,06,08,03,10,10.90
2019,06,08,03,11,10.90
2019,06,08,03,12,10.90
2019,06,08,03,13,10.90
2019,06,08,03,14,10.90
2019,06,08,03,15,10.90
2019,06,08,03,16,10.90
2019,06,08,03,18,10.90
2019,06,08,03,19,10.90
2019,06,08,03,21,10.90
2019,06,08,03,22,10.90
2019,06,08,03,23,10.90
2019,06,08,03,24,10.90
2019,06,08,03,26,10.80
2019,06,08,03,28,10.80
2019,06,08,03,29,10.80
2019,06,08,03,30,10.80
2019,06,08,03,31,10.80
2019,06,08,03,33,10.70
2019,06,08,03,34,10.70
2019,06,08,03,36,10.70
2019,06,08,03,37,10.70
2019,06,08,03,38,10.70
2019,06,08,03,39,10.70
2019,06,08,03,41,10.60
2019,06,08,03,42,10.60
2019,06,08,03,43,10.60
2019,06,08,03,44,10.60
2019,06,08,03,45,10.60
2019,06,08,03,46,10.60
2019,06,08,03,48,10.60
2019,06,08,03,49,10.60
2019,06,08,03,51,10.60
2019,06,08,03,52,10.60
2019,06,08,03,53,10.60
2019,06,08,03,54,10.60
2019,06,08,03,56,10.60
2019,06,08,03,58,10.60
2019,06,08,03,59,10.40
2019,06,08,04,00,10.40
2019,06,08,04,02,10.40
2019,06,08,04,03,10.40
2019,06,08,04,04,10.40
2019,06,08,04,06,10.40
2019,06,08,04,07,10.40
2019,06,08,04,08,10.40
2019,06,08,04,09,10.40
2019,06,08,04,11,10.40
2019,06,08,04,12,10.40
2019,06,08,04,13,10.40
2019,06,08,04,14,10.40
2019,06,08,04,16,10.40
2019,06,08,04,18,10.40
2019,06,08,04,19,10.30
2019,06,08,04,21,10.30
2019,06,08,04,22,10.30
2019,06,08,04,23,10.30
2019,06,08,04,24,10.30
2019,06,08,04,26,10.30
2019,06,08,04,27,10.30
2019,06,08,04,28,10.30
2019,06,08,04,29,10.30
2019,06,08,04,31,10.20
2019,06,08,04,32,10.20
2019,06,08,04,33,10.20
2019,06,08,04,34,10.20
2019,06,08,04,36,10.20
2019,06,08,04,37,10.20
2019,06,08,04,38,10.20
2019,06,08,04,39,10.20
2019,06,08,04,41,10.20
2019,06,08,04,42,10.20
2019,06,08,04,43,10.20
2019,06,08,04,44,10.20
2019,06,08,04,46,10.20
2019,06,08,04,47,10.20
2019,06,08,04,48,10.10
2019,06,08,04,49,10.10
2019,06,08,04,51,10.10
2019,06,08,04,52,10.10
2019,06,08,04,53,10.10
2019,06,08,04,54,10.10
2019,06,08,04,56,10.10
2019,06,08,04,57,10.10
2019,06,08,04,58,10.10
2019,06,08,04,59,10.10
2019,06,08,05,01,10.10
2019,06,08,05,02,10.10
2019,06,08,05,03,10.10
2019,06,08,05,04,10.10
2019,06,08,05,06,10.10
2019,06,08,05,07,10.10
2019,06,08,05,08,10.10
2019,06,08,05,09,10.10
2019,06,08,05,11,10.10
2019,06,08,05,12,10.10
2019,06,08,05,13,10.10
2019,06,08,05,14,10.10
2019,06,08,05,16,10.10
2019,06,08,05,17,10.10
2019,06,08,05,18,10.10
2019,06,08,05,19,10.10
2019,06,08,05,21,10.10
2019,06,08,05,22,10.10
2019,06,08,05,23,10.10
2019,06,08,05,24,10.10
2019,06,08,05,26,9.90
2019,06,08,05,27,9.90
2019,06,08,05,28,9.90
2019,06,08,05,29,9.90
2019,06,08,05,31,9.90
2019,06,08,05,32,9.90
2019,06,08,05,33,9.90
2019,06,08,05,34,9.90
2019,06,08,05,36,9.90
2019,06,08,05,37,9.90
2019,06,08,05,38,9.90
2019,06,08,05,39,9.90
2019,06,08,05,41,9.90
2019,06,08,05,42,9.90
2019,06,08,05,43,9.90
2019,06,08,05,44,9.90
2019,06,08,05,46,9.90
2019,06,08,05,47,9.90
2019,06,08,05,48,9.90
2019,06,08,05,49,9.90
2019,06,08,05,51,9.90
2019,06,08,05,52,9.90
2019,06,08,05,53,9.90
2019,06,08,05,54,9.90
2019,06,08,05,56,9.90
2019,06,08,05,57,9.90
2019,06,08,05,58,9.90
2019,06,08,05,59,9.90
2019,06,08,06,01,9.90
2019,06,08,06,02,9.90
2019,06,08,06,03,9.90
2019,06,08,06,04,9.90
2019,06,08,06,06,9.90
2019,06,08,06,07,9.90
2019,06,08,06,08,9.90
2019,06,08,06,09,9.90
2019,06,08,06,11,9.90
2019,06,08,06,12,9.90
2019,06,08,06,13,9.90
2019,06,08,06,14,9.90
2019,06,08,06,16,9.90
2019,06,08,06,17,9.90
2019,06,08,06,18,9.90
2019,06,08,06,19,9.90
2019,06,08,06,21,10.10
2019,06,08,06,22,10.10
2019,06,08,06,23,10.10
2019,06,08,06,24,10.10
2019,06,08,06,25,10.10
2019,06,08,06,26,10.10
2019,06,08,06,27,10.10
2019,06,08,06,28,10.10
2019,06,08,06,29,10.10
2019,06,08,06,30,10.10
2019,06,08,06,32,10.10
2019,06,08,06,33,10.10
2019,06,08,06,34,10.10
2019,06,08,06,36,10.10
2019,06,08,06,37,10.10
2019,06,08,06,38,10.10
2019,06,08,06,39,10.10
2019,06,08,06,40,10.20
2019,06,08,06,41,10.20
2019,06,08,06,42,10.20
2019,06,08,06,43,10.20
2019,06,08,06,44,10.20
2019,06,08,06,45,10.20
2019,06,08,06,46,10.20
2019,06,08,06,47,10.20
2019,06,08,06,48,10.30
2019,06,08,06,49,10.30
2019,06,08,06,50,10.30
2019,06,08,06,51,10.30
2019,06,08,06,52,10.30
2019,06,08,06,53,10.30
2019,06,08,06,54,10.30
2019,06,08,06,55,10.40
2019,06,08,06,56,10.40
2019,06,08,06,57,10.40
2019,06,08,06,58,10.40
2019,06,08,06,59,10.40
2019,06,08,07,00,10.40
2019,06,08,07,01,10.40
2019,06,08,07,02,10.40
2019,06,08,07,03,10.40
2019,06,08,07,04,10.60
2019,06,08,07,06,10.60
2019,06,08,07,07,10.60
2019,06,08,07,08,10.60
2019,06,08,07,09,10.70
2019,06,08,07,10,10.70
2019,06,08,07,11,10.80
2019,06,08,07,12,10.80
2019,06,08,07,13,10.90
2019,06,08,07,14,10.90
2019,06,08,07,15,10.90
2019,06,08,07,16,10.90
2019,06,08,07,17,11.10
2019,06,08,07,18,11.10
2019,06,08,07,19,11.10
2019,06,08,07,21,11.10
2019,06,08,07,22,11.20
2019,06,08,07,23,11.20
2019,06,08,07,24,11.20
2019,06,08,07,25,11.30
2019,06,08,07,26,11.30
2019,06,08,07,27,11.30
2019,06,08,07,28,11.40
2019,06,08,07,29,11.40
2019,06,08,07,30,11.40
2019,06,08,07,31,11.40
2019,06,08,07,32,11.60
2019,06,08,07,33,11.60
2019,06,08,07,34,11.60
2019,06,08,07,35,11.60
2019,06,08,07,36,11.60
2019,06,08,07,37,11.70
2019,06,08,07,38,11.80
2019,06,08,07,39,11.80
2019,06,08,07,40,11.80
2019,06,08,07,41,11.80
2019,06,08,07,42,11.90
2019,06,08,07,43,11.90
2019,06,08,07,44,12.00
2019,06,08,07,45,12.00
2019,06,08,07,46,12.10
2019,06,08,07,47,12.20
2019,06,08,07,49,12.30
2019,06,08,07,51,12.30
2019,06,08,07,52,12.40
2019,06,08,07,53,12.40
2019,06,08,07,54,12.50
2019,06,08,07,55,12.50
2019,06,08,07,56,12.60
2019,06,08,07,58,12.70
2019,06,08,07,59,12.70
2019,06,08,08,00,12.80
2019,06,08,08,02,12.80
2019,06,08,08,03,12.80
2019,06,08,08,04,12.80
2019,06,08,08,05,12.80
2019,06,08,08,07,12.90
2019,06,08,08,08,12.90
2019,06,08,08,09,13.00
2019,06,08,08,11,13.10
2019,06,08,08,12,13.10
2019,06,08,08,13,13.20
2019,06,08,08,14,13.20
2019,06,08,08,15,13.30
2019,06,08,08,16,13.30
2019,06,08,08,17,13.30
2019,06,08,08,19,13.40
2019,06,08,08,21,13.60
2019,06,08,08,22,13.60
2019,06,08,08,23,13.70
2019,06,08,08,24,13.70
2019,06,08,08,26,13.80
2019,06,08,08,28,13.90
2019,06,08,08,29,13.90
2019,06,08,08,31,14.00
2019,06,08,08,32,14.10
2019,06,08,08,33,14.20
2019,06,08,08,34,14.20
2019,06,08,08,36,14.30
2019,06,08,08,37,14.30
2019,06,08,08,38,14.40
2019,06,08,08,39,14.40
2019,06,08,08,41,14.60
2019,06,08,08,43,14.70
2019,06,08,08,44,14.80
2019,06,08,08,46,14.80
2019,06,08,08,47,14.90
2019,06,08,08,48,15.00
2019,06,08,08,49,15.10
2019,06,08,08,51,15.30
2019,06,08,08,52,15.30
2019,06,08,08,53,15.40
2019,06,08,08,54,15.40
2019,06,08,08,56,15.50
2019,06,08,08,57,15.40
2019,06,08,08,58,15.40
2019,06,08,08,59,15.30
2019,06,08,09,01,15.30
2019,06,08,09,02,15.30
2019,06,08,09,03,15.20
2019,06,08,09,04,15.20
2019,06,08,09,06,15.00
2019,06,08,09,07,15.00
2019,06,08,09,08,14.90
2019,06,08,09,09,14.90
2019,06,08,09,11,14.80
2019,06,08,09,12,14.80
2019,06,08,09,13,14.80
2019,06,08,09,14,14.70
2019,06,08,09,16,14.60
2019,06,08,09,17,14.60
2019,06,08,09,18,14.60
2019,06,08,09,19,14.60
2019,06,08,09,21,14.50
2019,06,08,09,22,14.50
2019,06,08,09,23,14.50
2019,06,08,09,24,14.50
2019,06,08,09,26,14.60
2019,06,08,09,27,14.60
2019,06,08,09,28,14.60
2019,06,08,09,29,14.60
2019,06,08,09,31,14.70
2019,06,08,09,32,14.70
2019,06,08,09,33,14.70
2019,06,08,09,34,14.80
2019,06,08,09,36,14.80
2019,06,08,09,37,14.80
2019,06,08,09,38,14.80
2019,06,08,09,39,14.80
2019,06,08,09,41,14.80
2019,06,08,09,42,14.80
2019,06,08,09,43,14.80
2019,06,08,09,44,14.80
2019,06,08,09,46,14.80
2019,06,08,09,47,14.80
2019,06,08,09,48,14.80
2019,06,08,09,49,14.80
2019,06,08,09,51,14.90
2019,06,08,09,52,15.00
2019,06,08,09,53,15.00
2019,06,08,09,54,15.00
2019,06,08,09,56,15.10
2019,06,08,09,57,15.10
2019,06,08,09,58,15.20
2019,06,08,09,59,15.20
2019,06,08,10,01,15.30
2019,06,08,10,02,15.30
2019,06,08,10,03,15.30
2019,06,08,10,04,15.30
2019,06,08,10,06,15.30
2019,06,08,10,07,15.30
2019,06,08,10,08,15.30
2019,06,08,10,09,15.30
2019,06,08,10,11,15.30
2019,06,08,10,12,15.30
2019,06,08,10,13,15.20
2019,06,08,10,14,15.20
2019,06,08,10,16,15.10
2019,06,08,10,17,15.10
2019,06,08,10,18,15.00
2019,06,08,10,19,15.00
2019,06,08,10,21,14.90
2019,06,08,10,22,14.90
2019,06,08,10,23,14.90
2019,06,08,10,24,14.90
2019,06,08,10,26,14.90
2019,06,08,10,27,14.90
2019,06,08,10,28,14.90
2019,06,08,10,29,14.90
2019,06,08,10,31,14.90
2019,06,08,10,32,15.00
2019,06,08,10,33,15.10
2019,06,08,10,34,15.20
2019,06,08,10,35,15.30
2019,06,08,10,36,15.30
2019,06,08,10,37,15.50
2019,06,08,10,38,15.60
2019,06,08,10,39,15.80
2019,06,08,10,41,15.90
2019,06,08,10,42,16.10
2019,06,08,10,43,16.10
2019,06,08,10,44,16.20
2019,06,08,10,46,16.30
2019,06,08,10,47,16.40
2019,06,08,10,48,16.40
2019,06,08,10,49,16.40
2019,06,08,10,51,16.40
2019,06,08,10,52,16.40
2019,06,08,10,53,16.40
2019,06,08,10,54,16.40
2019,06,08,10,56,16.70
2019,06,08,10,57,16.70
2019,06,08,10,58,16.80
2019,06,08,11,01,17.20
2019,06,08,11,02,17.30
2019,06,08,11,03,17.30
2019,06,08,11,04,17.30
2019,06,08,11,06,17.30
2019,06,08,11,07,17.20
2019,06,08,11,08,17.10
2019,06,08,11,09,17.10
2019,06,08,11,11,17.00
2019,06,08,11,12,17.00
2019,06,08,11,13,17.00
2019,06,08,11,14,17.00
2019,06,08,11,16,17.10
2019,06,08,11,17,17.00
2019,06,08,11,18,17.00
2019,06,08,11,19,17.00
2019,06,08,11,21,17.00
2019,06,08,11,22,17.00
2019,06,08,11,23,17.00
2019,06,08,11,24,17.10
2019,06,08,11,25,17.20
2019,06,08,11,26,17.20
2019,06,08,11,27,17.30
2019,06,08,11,28,17.30
2019,06,08,11,29,17.30
2019,06,08,11,30,17.30
2019,06,08,11,31,17.20
2019,06,08,11,32,17.20
2019,06,08,11,33,17.20
2019,06,08,11,34,17.20
2019,06,08,11,36,17.10
2019,06,08,11,37,17.10
2019,06,08,11,38,17.10
2019,06,08,11,39,17.10
2019,06,08,11,40,17.20
2019,06,08,11,41,17.20
2019,06,08,11,42,17.30
2019,06,08,11,43,17.30
2019,06,08,11,44,17.30
2019,06,08,11,45,17.30
2019,06,08,11,46,17.30
2019,06,08,11,47,17.30
2019,06,08,11,48,17.30
2019,06,08,11,49,17.30
2019,06,08,11,50,17.30
2019,06,08,11,51,17.20
2019,06,08,11,52,17.20
2019,06,08,11,53,17.20
2019,06,08,11,54,17.20
2019,06,08,11,55,17.20
2019,06,08,11,56,17.20
2019,06,08,11,57,17.30
2019,06,08,11,58,17.30
2019,06,08,11,59,17.30
2019,06,08,12,00,17.40
2019,06,08,12,01,17.40
2019,06,08,12,02,17.50
2019,06,08,12,03,17.50
2019,06,08,12,04,17.60
2019,06,08,12,06,17.60
2019,06,08,12,07,17.60
2019,06,08,12,08,17.60
2019,06,08,12,09,17.60
2019,06,08,12,10,17.60
2019,06,08,12,11,17.50
2019,06,08,12,12,17.50
2019,06,08,12,13,17.50
2019,06,08,12,14,17.60
2019,06,08,12,15,17.60
2019,06,08,12,16,17.60
2019,06,08,12,17,17.70
2019,06,08,12,18,17.70
2019,06,08,12,19,17.70
2019,06,08,12,20,17.80
2019,06,08,12,21,17.80
2019,06,08,12,22,17.80
2019,06,08,12,23,17.80
2019,06,08,12,24,17.80
2019,06,08,12,25,17.80
2019,06,08,12,26,17.80
2019,06,08,12,27,17.70
2019,06,08,12,28,17.70
2019,06,08,12,29,17.70
2019,06,08,12,30,17.60
2019,06,08,12,32,17.50
2019,06,08,12,33,17.40
2019,06,08,12,34,17.40
2019,06,08,12,35,17.40
2019,06,08,12,36,17.30
2019,06,08,12,37,17.30
2019,06,08,12,38,17.30
2019,06,08,12,39,17.30
2019,06,08,12,40,17.30
2019,06,08,12,41,17.30
2019,06,08,12,42,17.30
2019,06,08,12,43,17.20
2019,06,08,12,44,17.30
2019,06,08,12,45,17.30
2019,06,08,12,46,17.30
2019,06,08,12,47,17.30
2019,06,08,12,48,17.30
2019,06,08,12,49,17.30
2019,06,08,12,50,17.30
2019,06,08,12,51,17.30
2019,06,08,12,52,17.30
2019,06,08,12,53,17.30
2019,06,08,12,54,17.30
2019,06,08,12,55,17.30
2019,06,08,12,56,17.20
2019,06,08,12,57,17.20
2019,06,08,12,58,17.10
2019,06,08,12,59,17.00
2019,06,08,13,00,17.00
2019,06,08,13,01,17.00
2019,06,08,13,02,17.00
2019,06,08,13,03,17.00
2019,06,08,13,04,17.10
2019,06,08,13,06,17.20
2019,06,08,13,08,17.20
2019,06,08,13,09,17.20
2019,06,08,13,11,17.20
2019,06,08,13,12,17.10
2019,06,08,13,14,17.10
2019,06,08,13,15,17.00
2019,06,08,13,16,17.00
2019,06,08,13,17,17.00
2019,06,08,13,19,16.80
2019,06,08,13,21,16.70
2019,06,08,13,22,16.60
2019,06,08,13,23,16.40
2019,06,08,13,24,16.40
2019,06,08,13,25,16.40
2019,06,08,13,26,16.40
2019,06,08,13,28,16.30
2019,06,08,13,29,16.30
2019,06,08,13,30,16.30
2019,06,08,13,32,16.30
2019,06,08,13,33,16.30
2019,06,08,13,34,16.30
2019,06,08,13,36,16.30
2019,06,08,13,38,16.30
2019,06,08,13,39,16.30
2019,06,08,13,41,16.30
2019,06,08,13,42,16.30
2019,06,08,13,43,16.30
2019,06,08,13,44,16.30
2019,06,08,13,46,16.40
2019,06,08,13,48,16.40
2019,06,08,13,49,16.40
2019,06,08,13,51,16.60
2019,06,08,13,52,16.70
2019,06,08,13,53,16.70
2019,06,08,13,54,16.80
2019,06,08,13,56,17.00
2019,06,08,13,57,17.10
2019,06,08,13,58,17.30
2019,06,08,13,59,17.30
2019,06,08,14,00,17.30
2019,06,08,14,02,17.40
2019,06,08,14,03,17.60
2019,06,08,14,04,17.70
2019,06,08,14,06,17.90
2019,06,08,14,07,18.10
2019,06,08,14,08,18.10
2019,06,08,14,09,18.20
2019,06,08,14,11,18.30
2019,06,08,14,12,18.30
2019,06,08,14,14,18.50
2019,06,08,14,16,18.50
2019,06,08,14,18,18.60
2019,06,08,14,19,18.60
2019,06,08,14,21,18.60
2019,06,08,14,22,18.60
2019,06,08,14,23,18.60
2019,06,08,14,24,18.60
2019,06,08,14,26,18.50
2019,06,08,14,27,18.40
2019,06,08,14,28,18.40
2019,06,08,14,29,18.30
2019,06,08,14,31,18.20
2019,06,08,14,32,18.20
2019,06,08,14,33,18.20
2019,06,08,14,34,18.20
2019,06,08,14,36,17.90
2019,06,08,14,37,17.90
2019,06,08,14,38,17.90
2019,06,08,14,39,17.80
2019,06,08,14,41,17.70
2019,06,08,14,42,17.70
2019,06,08,14,43,17.70
2019,06,08,14,44,17.70
2019,06,08,14,46,17.70
2019,06,08,14,47,17.60
2019,06,08,14,48,17.60
2019,06,08,14,49,17.60
2019,06,08,14,51,17.70
2019,06,08,14,52,17.80
2019,06,08,14,53,17.90
2019,06,08,14,54,17.90
2019,06,08,14,56,17.90
2019,06,08,14,57,17.80
2019,06,08,14,58,17.70
2019,06,08,14,59,17.50
2019,06,08,15,01,17.20
2019,06,08,15,02,17.00
2019,06,08,15,03,16.90
2019,06,08,15,04,16.80
2019,06,08,15,06,16.70
2019,06,08,15,07,16.70
2019,06,08,15,08,16.70
2019,06,08,15,09,16.70
2019,06,08,15,11,16.90
2019,06,08,15,12,17.10
2019,06,08,15,13,17.30
2019,06,08,15,14,17.30
2019,06,08,15,16,17.60
2019,06,08,15,17,17.70
2019,06,08,15,18,17.80
2019,06,08,15,19,17.90
2019,06,08,15,21,18.10
2019,06,08,15,22,18.20
2019,06,08,15,23,18.20
2019,06,08,15,24,18.30
2019,06,08,15,26,18.40
2019,06,08,15,27,18.40
2019,06,08,15,28,18.50
2019,06,08,15,29,18.60
2019,06,08,15,31,18.70
2019,06,08,15,32,18.80
2019,06,08,15,33,18.80
2019,06,08,15,34,18.90
2019,06,08,15,36,18.90
2019,06,08,15,37,18.90
2019,06,08,15,38,18.90
2019,06,08,15,39,18.90
2019,06,08,15,41,19.10
2019,06,08,15,42,19.10
2019,06,08,15,43,18.90
2019,06,08,15,44,18.90
2019,06,08,15,46,18.90
2019,06,08,15,47,18.90
2019,06,08,15,48,18.90
2019,06,08,15,49,18.90
2019,06,08,15,51,18.90
2019,06,08,15,52,18.90
2019,06,08,15,53,18.90
2019,06,08,15,54,18.90
2019,06,08,15,56,18.90
2019,06,08,15,57,18.90
2019,06,08,15,58,18.90
2019,06,08,15,59,18.90
2019,06,08,16,01,19.10
2019,06,08,16,02,19.10
2019,06,08,16,03,19.10
2019,06,08,16,04,19.20
2019,06,08,16,06,19.20
2019,06,08,16,08,19.20
2019,06,08,16,09,19.20
2019,06,08,16,11,19.20
2019,06,08,16,12,19.20
2019,06,08,16,13,19.20
2019,06,08,16,14,19.20
2019,06,08,16,16,19.10
2019,06,08,16,17,19.10
2019,06,08,16,18,19.10
2019,06,08,16,19,19.10
2019,06,08,16,20,19.10
2019,06,08,16,21,19.10
2019,06,08,16,22,19.10
2019,06,08,16,23,19.10
2019,06,08,16,24,19.10
2019,06,08,16,26,19.10
2019,06,08,16,27,18.90
2019,06,08,16,28,18.90
2019,06,08,16,29,18.90
2019,06,08,16,31,18.90
2019,06,08,16,32,18.80
2019,06,08,16,33,18.80
2019,06,08,16,34,18.70
2019,06,08,16,36,18.70
2019,06,08,16,37,18.60
2019,06,08,16,38,18.60
2019,06,08,16,39,18.60
2019,06,08,16,40,18.60
2019,06,08,16,41,18.60
2019,06,08,16,42,18.60
2019,06,08,16,43,18.60
2019,06,08,16,44,18.50
2019,06,08,16,45,18.50
2019,06,08,16,46,18.40
2019,06,08,16,47,18.40
2019,06,08,16,48,18.40
2019,06,08,16,49,18.40
2019,06,08,16,50,18.40
2019,06,08,16,51,18.40
2019,06,08,16,52,18.40
2019,06,08,16,53,18.40
2019,06,08,16,54,18.40
2019,06,08,16,55,18.40
2019,06,08,16,56,18.40
2019,06,08,16,57,18.40
2019,06,08,16,58,18.40
2019,06,08,16,59,18.40
2019,06,08,17,00,18.40
2019,06,08,17,01,18.30
2019,06,08,17,02,18.30
2019,06,08,17,03,18.30
2019,06,08,17,04,18.20
2019,06,08,17,06,18.20
2019,06,08,17,07,18.20
2019,06,08,17,08,18.10
2019,06,08,17,09,18.10
2019,06,08,17,10,18.10
2019,06,08,17,11,18.10
2019,06,08,17,12,18.10
2019,06,08,17,13,18.10
2019,06,08,17,14,17.90
2019,06,08,17,15,18.10
2019,06,08,17,16,18.10
2019,06,08,17,17,18.10
2019,06,08,17,18,18.10
2019,06,08,17,19,18.20
2019,06,08,17,20,18.20
2019,06,08,17,21,18.20
2019,06,08,17,22,18.20
2019,06,08,17,23,18.20
2019,06,08,17,24,18.20
2019,06,08,17,25,18.20
2019,06,08,17,26,18.20
2019,06,08,17,27,18.20
2019,06,08,17,28,18.20
2019,06,08,17,29,18.30
2019,06,08,17,30,18.30
2019,06,08,17,31,18.30
2019,06,08,17,32,18.30
2019,06,08,17,33,18.30
2019,06,08,17,34,18.30
2019,06,08,17,35,18.20
2019,06,08,17,36,18.20
2019,06,08,17,37,18.20
2019,06,08,17,38,18.20
2019,06,08,17,39,18.20
2019,06,08,17,40,18.20
2019,06,08,17,41,18.20
2019,06,08,17,42,18.20
2019,06,08,17,43,18.20
2019,06,08,17,44,18.20
2019,06,08,17,45,18.20
2019,06,08,17,46,18.10
2019,06,08,17,47,18.10
2019,06,08,17,48,18.10
2019,06,08,17,49,18.20
2019,06,08,17,50,18.10
2019,06,08,17,51,18.10
2019,06,08,17,52,18.10
2019,06,08,17,53,18.10
2019,06,08,17,54,18.10
2019,06,08,17,55,18.10
2019,06,08,17,56,18.10
2019,06,08,17,57,18.10
2019,06,08,17,59,18.10
2019,06,08,18,00,18.10
2019,06,08,18,02,18.10
2019,06,08,18,03,18.10
2019,06,08,18,04,18.10
2019,06,08,18,06,17.90
2019,06,08,18,07,17.90
2019,06,08,18,09,17.90
2019,06,08,18,11,17.90
2019,06,08,18,14,18.10
2019,06,08,18,15,18.10
2019,06,08,18,16,18.20
2019,06,08,18,18,18.20
2019,06,08,18,19,18.20
2019,06,08,18,21,18.20
2019,06,08,18,22,18.20
2019,06,08,18,23,18.20
2019,06,08,18,24,18.20
2019,06,08,18,26,18.10
2019,06,08,18,27,18.10
2019,06,08,18,29,18.10
2019,06,08,18,30,18.10
2019,06,08,18,32,18.10
2019,06,08,18,33,18.10
2019,06,08,18,34,17.90
2019,06,08,18,36,17.90
2019,06,08,18,37,17.80
2019,06,08,18,38,17.60
2019,06,08,18,39,17.50
2019,06,08,18,40,17.50
2019,06,08,18,42,17.50
2019,06,08,18,44,17.50
2019,06,08,18,46,17.60
2019,06,08,18,47,17.70
2019,06,08,18,48,17.70
2019,06,08,18,49,17.80
2019,06,08,18,51,17.80
2019,06,08,18,52,17.90
2019,06,08,18,53,17.90
2019,06,08,18,54,17.90
2019,06,08,18,56,17.90
2019,06,08,18,57,18.10
2019,06,08,18,58,18.10
2019,06,08,18,59,18.20
2019,06,08,19,01,18.20
2019,06,08,19,02,18.20
2019,06,08,19,03,18.20
2019,06,08,19,04,18.30
2019,06,08,19,06,18.40
2019,06,08,19,07,18.40
2019,06,08,19,08,18.50
2019,06,08,19,09,18.40
2019,06,08,19,11,18.50
2019,06,08,19,12,18.50
2019,06,08,19,13,18.40
2019,06,08,19,14,18.40
2019,06,08,19,16,18.40
2019,06,08,19,17,18.30
2019,06,08,19,18,18.30
2019,06,08,19,19,18.30
2019,06,08,19,21,18.20
2019,06,08,19,22,18.20
2019,06,08,19,23,18.20
2019,06,08,19,24,18.20
2019,06,08,19,26,18.20
2019,06,08,19,27,18.20
2019,06,08,19,28,18.20
2019,06,08,19,29,18.10
2019,06,08,19,31,18.10
2019,06,08,19,32,18.10
2019,06,08,19,33,18.10
2019,06,08,19,34,18.10
2019,06,08,19,36,17.90
2019,06,08,19,37,17.90
2019,06,08,19,38,17.90
2019,06,08,19,39,17.90
2019,06,08,19,41,17.70
2019,06,08,19,42,17.60
2019,06,08,19,43,17.60
2019,06,08,19,44,17.50
2019,06,08,19,46,17.30
2019,06,08,19,47,17.30
2019,06,08,19,48,17.30
2019,06,08,19,49,17.30
2019,06,08,19,51,17.20
2019,06,08,19,52,17.20
2019,06,08,19,53,17.20
2019,06,08,19,54,17.20
2019,06,08,19,56,17.10
2019,06,08,19,57,17.00
2019,06,08,19,58,17.00
2019,06,08,19,59,16.90
2019,06,08,20,01,16.80
2019,06,08,20,02,16.70
2019,06,08,20,03,16.70
2019,06,08,20,04,16.70
2019,06,08,20,06,16.40
2019,06,08,20,07,16.40
2019,06,08,20,08,16.40
2019,06,08,20,09,16.30
2019,06,08,20,11,16.30
2019,06,08,20,12,16.20
2019,06,08,20,13,16.20
2019,06,08,20,14,16.10
2019,06,08,20,16,16.10
2019,06,08,20,17,16.10
2019,06,08,20,18,16.10
2019,06,08,20,19,16.10
2019,06,08,20,21,15.90
2019,06,08,20,22,15.90
2019,06,08,20,23,15.80
2019,06,08,20,24,15.80
2019,06,08,20,26,15.80
2019,06,08,20,27,15.80
2019,06,08,20,28,15.80
2019,06,08,20,29,15.80
2019,06,08,20,31,15.80
2019,06,08,20,32,15.70
2019,06,08,20,33,15.70
2019,06,08,20,34,15.70
2019,06,08,20,36,15.70
2019,06,08,20,37,15.60
2019,06,08,20,38,15.60
2019,06,08,20,39,15.60
2019,06,08,20,41,15.60
2019,06,08,20,42,15.60
2019,06,08,20,43,15.50